TimeEDT,TemperatureF,Dew PointF,Humidity,Sea Level PressureIn,VisibilityMPH,Wind Direction,Wind SpeedMPH,Gust SpeedMPH,PrecipitationIn,Events,Conditions,WindDirDegrees,DateUTC
12:15 AM,68.0,62.6,83,30.21,7.0,Calm,Calm,-,N/A,,Clear,0,2013-05-27 04:15:00
12:35 AM,68.0,62.6,83,30.21,10.0,Calm,Calm,-,N/A,,Clear,0,2013-05-27 04:35:00
12:55 AM,68.0,62.6,83,30.21,7.0,Calm,Calm,-,N/A,,Clear,0,2013-05-27 04:55:00
1:15 AM,66.2,62.6,88,30.21,7.0,Calm,Calm,-,N/A,,Clear,0,2013-05-27 05:15:00
1:35 AM,66.2,62.6,88,30.21,7.0,Calm,Calm,-,N/A,,Clear,0,2013-05-27 05:35:00
1:55 AM,66.2,62.6,88,30.21,5.0,Calm,Calm,-,N/A,,Clear,0,2013-05-27 05:55:00
2:15 AM,64.4,62.6,94,30.20,7.0,Calm,Calm,-,N/A,,Clear,0,2013-05-27 06:15:00
2:35 AM,64.4,64.4,100,30.19,7.0,Calm,Calm,-,N/A,,Clear,0,2013-05-27 06:35:00
2:55 AM,64.4,64.4,100,30.19,7.0,Calm,Calm,-,N/A,,Clear,0,2013-05-27 06:55:00
3:15 AM,64.4,62.6,94,30.19,10.0,Calm,Calm,-,N/A,,Clear,0,2013-05-27 07:15:00
3:35 AM,64.4,62.6,94,30.19,7.0,Calm,Calm,-,N/A,,Clear,0,2013-05-27 07:35:00
3:55 AM,64.4,62.6,94,30.19,7.0,Calm,Calm,-,N/A,,Clear,0,2013-05-27 07:55:00
4:15 AM,64.4,62.6,94,30.19,10.0,Calm,Calm,-,N/A,,Clear,0,2013-05-27 08:15:00
4:35 AM,64.4,64.4,100,30.20,7.0,Calm,Calm,-,N/A,,Clear,0,2013-05-27 08:35:00
4:55 AM,64.4,64.4,100,30.20,7.0,Calm,Calm,-,N/A,,Clear,0,2013-05-27 08:55:00
5:15 AM,62.6,62.6,100,30.20,7.0,Calm,Calm,-,N/A,,Clear,0,2013-05-27 09:15:00
5:35 AM,62.6,62.6,100,30.21,7.0,Calm,Calm,-,N/A,,Clear,0,2013-05-27 09:35:00
5:55 AM,62.6,62.6,100,30.21,7.0,Calm,Calm,-,N/A,,Clear,0,2013-05-27 09:55:00
6:15 AM,62.6,62.6,100,30.21,7.0,Calm,Calm,-,N/A,,Clear,0,2013-05-27 10:15:00
6:35 AM,62.6,62.6,100,30.22,5.0,Calm,Calm,-,N/A,,Clear,0,2013-05-27 10:35:00
6:55 AM,62.6,62.6,100,30.23,7.0,Calm,Calm,-,N/A,,Clear,0,2013-05-27 10:55:00
7:15 AM,64.4,64.4,100,30.23,7.0,Calm,Calm,-,N/A,,Clear,0,2013-05-27 11:15:00
7:35 AM,68.0,68.0,100,30.24,5.0,Calm,Calm,-,N/A,,Clear,0,2013-05-27 11:35:00
7:55 AM,69.8,68.0,94,30.24,5.0,Calm,Calm,-,N/A,,Clear,0,2013-05-27 11:55:00
8:15 AM,71.6,68.0,88,30.24,7.0,Calm,Calm,-,N/A,,Clear,0,2013-05-27 12:15:00
8:35 AM,73.4,68.0,83,30.24,7.0,Calm,Calm,-,N/A,,Clear,0,2013-05-27 12:35:00
8:55 AM,73.4,66.2,78,30.24,7.0,Calm,Calm,-,N/A,,Clear,0,2013-05-27 12:55:00
9:15 AM,75.2,66.2,73,30.24,10.0,SW,4.6,-,N/A,,Clear,230,2013-05-27 13:15:00
9:35 AM,77.0,64.4,65,30.25,7.0,SSE,3.5,-,N/A,,Clear,160,2013-05-27 13:35:00
9:55 AM,77.0,64.4,65,30.24,5.0,Calm,Calm,-,N/A,,Haze,0,2013-05-27 13:55:00
10:15 AM,77.0,62.6,61,30.24,7.0,Calm,Calm,-,N/A,,Clear,0,2013-05-27 14:15:00
10:35 AM,78.8,62.6,57,30.25,10.0,West,3.5,-,N/A,,Clear,260,2013-05-27 14:35:00
10:55 AM,78.8,62.6,57,30.24,4.0,WSW,6.9,-,N/A,,Haze,240,2013-05-27 14:55:00
11:15 AM,80.6,62.6,54,30.24,10.0,SW,3.5,-,N/A,,Clear,230,2013-05-27 15:15:00
11:35 AM,80.6,62.6,54,30.24,7.0,SW,3.5,-,N/A,,Scattered Clouds,220,2013-05-27 15:35:00
11:55 AM,80.6,62.6,54,30.24,7.0,SW,4.6,-,N/A,,Scattered Clouds,230,2013-05-27 15:55:00
12:15 PM,80.6,64.4,58,30.24,7.0,WSW,5.8,-,N/A,,Clear,240,2013-05-27 16:15:00
12:35 PM,80.6,64.4,58,30.24,7.0,SW,4.6,-,N/A,,Clear,220,2013-05-27 16:35:00
12:55 PM,80.6,62.6,54,30.24,7.0,SSW,6.9,-,N/A,,Clear,200,2013-05-27 16:55:00
1:15 PM,80.6,62.6,54,30.23,7.0,SSE,6.9,-,N/A,,Clear,160,2013-05-27 17:15:00
1:35 PM,80.6,62.6,54,30.23,10.0,South,9.2,-,N/A,,Clear,190,2013-05-27 17:35:00
1:55 PM,80.6,62.6,54,30.23,7.0,ESE,4.6,-,N/A,,Clear,120,2013-05-27 17:55:00
2:15 PM,80.6,62.6,54,30.23,7.0,ESE,3.5,-,N/A,,Clear,120,2013-05-27 18:15:00
2:35 PM,80.6,62.6,54,30.22,7.0,SSE,6.9,-,N/A,,Clear,160,2013-05-27 18:35:00
2:55 PM,80.6,62.6,54,30.22,7.0,Calm,Calm,-,N/A,,Clear,0,2013-05-27 18:55:00
3:15 PM,80.6,62.6,54,30.22,7.0,SE,8.1,-,N/A,,Clear,130,2013-05-27 19:15:00
3:35 PM,80.6,64.4,58,30.21,7.0,SSE,5.8,-,N/A,,Clear,150,2013-05-27 19:35:00
3:55 PM,80.6,62.6,54,30.21,7.0,SE,5.8,-,N/A,,Clear,140,2013-05-27 19:55:00
4:15 PM,78.8,62.6,57,30.20,7.0,SSE,6.9,-,N/A,,Clear,160,2013-05-27 20:15:00
4:35 PM,80.6,62.6,54,30.20,7.0,SE,8.1,-,N/A,,Clear,130,2013-05-27 20:35:00
4:55 PM,80.6,64.4,58,30.19,7.0,SSE,5.8,-,N/A,,Clear,150,2013-05-27 20:55:00
5:15 PM,78.8,64.4,61,30.19,7.0,SSE,9.2,-,N/A,,Clear,150,2013-05-27 21:15:00
5:35 PM,78.8,64.4,61,30.19,7.0,SSE,6.9,-,N/A,,Clear,160,2013-05-27 21:35:00
5:55 PM,77.0,64.4,65,30.18,7.0,South,8.1,-,N/A,,Clear,170,2013-05-27 21:55:00
6:15 PM,77.0,64.4,65,30.18,7.0,SSE,5.8,-,N/A,,Clear,150,2013-05-27 22:15:00
6:35 PM,77.0,64.4,65,30.17,7.0,SSE,6.9,-,N/A,,Clear,160,2013-05-27 22:35:00
6:55 PM,77.0,64.4,65,30.17,7.0,South,5.8,-,N/A,,Clear,170,2013-05-27 22:55:00
7:15 PM,73.4,64.4,73,30.18,7.0,SSE,4.6,-,N/A,,Clear,150,2013-05-27 23:15:00
7:35 PM,73.4,64.4,73,30.18,7.0,SSE,4.6,-,N/A,,Clear,150,2013-05-27 23:35:00
7:55 PM,73.4,64.4,73,30.18,7.0,SSE,3.5,-,N/A,,Clear,150,2013-05-27 23:55:00
8:15 PM,73.4,64.4,73,30.18,7.0,Calm,Calm,-,N/A,,Clear,0,2013-05-28 00:15:00
8:35 PM,73.4,64.4,73,30.19,10.0,Calm,Calm,-,N/A,,Clear,0,2013-05-28 00:35:00
8:55 PM,71.6,64.4,78,30.19,7.0,Calm,Calm,-,N/A,,Clear,0,2013-05-28 00:55:00
9:15 PM,71.6,64.4,78,30.20,7.0,Calm,Calm,-,N/A,,Clear,0,2013-05-28 01:15:00
9:35 PM,69.8,64.4,83,30.21,7.0,Calm,Calm,-,N/A,,Clear,0,2013-05-28 01:35:00
9:55 PM,69.8,64.4,83,30.21,7.0,SE,3.5,-,N/A,,Clear,130,2013-05-28 01:55:00
10:15 PM,69.8,64.4,83,30.22,10.0,SE,3.5,-,N/A,,Clear,140,2013-05-28 02:15:00
10:35 PM,69.8,64.4,83,30.22,10.0,SE,3.5,-,N/A,,Clear,140,2013-05-28 02:35:00
10:55 PM,69.8,64.4,83,30.22,7.0,SE,3.5,-,N/A,,Clear,140,2013-05-28 02:55:00
11:15 PM,69.8,64.4,83,30.22,7.0,SE,3.5,-,N/A,,Clear,140,2013-05-28 03:15:00
11:35 PM,69.8,64.4,83,30.22,10.0,Calm,Calm,-,N/A,,Clear,0,2013-05-28 03:35:00
11:55 PM,69.8,64.4,83,30.22,10.0,Calm,Calm,-,N/A,,Clear,0,2013-05-28 03:55:00